When you browse on this site, cookies collect data to enhance your experience and personalize the content and advertising you see.
Visit our Privacy Policy to learn more. By continuing to use the site, you agree to this use of cookies and data.
  • In United Kingdom
  • List of Countries
  • For 7 days
  • Water Temperature
  • Weather Map
  • Weather Widgets
  • user-avatar
    Login

    Hourly Weather Achaea

    Today, 14 December, Saturday

    Time Temperature Precipitation Wind Pressure Humidity
    00:00 +7°C° 0.3 mm 3 mps 672 mmHg 91%
    01:00 +6°C° 0 mm 4 mps 672 mmHg 92%
    02:00 +6°C° 3.8 mm 5 mps 670 mmHg 93%
    03:00 +6°C° 3.8 mm 5 mps 669 mmHg 94%
    04:00 +6°C° 3.8 mm 5 mps 668 mmHg 95%
    05:00 +6°C° 5.2 mm 4 mps 668 mmHg 96%
    06:00 +7°C° 5.2 mm 3 mps 668 mmHg 96%
    07:00 +7°C° 5.2 mm 2 mps 667 mmHg 96%
    08:00 +7°C° 2.7 mm 2 mps 667 mmHg 95%
    09:00 +6°C° 2.7 mm 2 mps 668 mmHg 94%
    10:00 +5°C° 2.7 mm 3 mps 668 mmHg 93%
    11:00 +5°C° 1.4 mm 3 mps 668 mmHg 92%
    12:00 +6°C° 1.4 mm 2 mps 668 mmHg 91%
    13:00 +6°C° 1.4 mm 2 mps 669 mmHg 90%
    14:00 +6°C° 0.4 mm 2 mps 669 mmHg 90%
    15:00 +6°C° 0.4 mm 2 mps 670 mmHg 90%
    16:00 +6°C° 0.4 mm 2 mps 671 mmHg 90%
    17:00 +5°C° 0 mm 2 mps 672 mmHg 90%
    18:00 +5°C° 0 mm 2 mps 673 mmHg 89%
    19:00 +5°C° 0 mm 2 mps 674 mmHg 89%
    20:00 +5°C° 0 mm 2 mps 675 mmHg 88%
    21:00 +6°C° 0 mm 1 mps 676 mmHg 86%
    22:00 +6°C° 0 mm 1 mps 677 mmHg 85%
    23:00 +6°C° 0 mm 1 mps 677 mmHg 84%

    Tomorrow, 15 December, Sunday

    Time Temperature Precipitation Wind Pressure Humidity
    00:00 +6°C° 0 mm 1 mps 678 mmHg 84%
    01:00 +6°C° 0 mm 1 mps 679 mmHg 83%
    02:00 +6°C° 0 mm 1 mps 680 mmHg 83%
    03:00 +6°C° 0 mm 1 mps 680 mmHg 83%
    04:00 +6°C° 0 mm 2 mps 681 mmHg 83%
    05:00 +6°C° 0 mm 2 mps 682 mmHg 83%
    06:00 +6°C° 0 mm 2 mps 683 mmHg 83%
    07:00 +6°C° 0 mm 2 mps 684 mmHg 83%
    08:00 +8°C° 0 mm 2 mps 685 mmHg 80%
    09:00 +10°C° 0 mm 2 mps 686 mmHg 76%
    10:00 +13°C° 0 mm 2 mps 687 mmHg 73%
    11:00 +13°C° 0 mm 2 mps 687 mmHg 71%
    12:00 +14°C° 0 mm 2 mps 687 mmHg 69%
    13:00 +14°C° 0 mm 2 mps 688 mmHg 67%
    14:00 +13°C° 0 mm 2 mps 688 mmHg 73%
    15:00 +12°C° 0 mm 1 mps 688 mmHg 79%
    16:00 +11°C° 0 mm 1 mps 688 mmHg 85%
    17:00 +10°C° 0 mm 1 mps 688 mmHg 86%
    18:00 +10°C° 0 mm 1 mps 689 mmHg 87%
    19:00 +9°C° 0 mm 1 mps 689 mmHg 88%
    20:00 +9°C° 0 mm 1 mps 689 mmHg 88%
    21:00 +9°C° 0 mm 1 mps 690 mmHg 88%
    22:00 +9°C° 0 mm 1 mps 690 mmHg 88%
    23:00 +8°C° 0 mm 1 mps 690 mmHg 89%

    Day after tomorrow, 16 December, Monday

    Time Temperature Precipitation Wind Pressure Humidity
    00:00 +8°C° 0 mm 1 mps 690 mmHg 89%
    01:00 +8°C° 0 mm 1 mps 690 mmHg 89%
    02:00 +8°C° 0 mm 1 mps 690 mmHg 90%
    03:00 +8°C° 0 mm 1 mps 690 mmHg 90%
    04:00 +8°C° 0 mm 1 mps 690 mmHg 91%
    05:00 +8°C° 0 mm 1 mps 690 mmHg 91%
    06:00 +8°C° 0 mm 1 mps 690 mmHg 91%
    07:00 +8°C° 0 mm 1 mps 691 mmHg 91%
    08:00 +9°C° 0 mm 1 mps 691 mmHg 88%
    09:00 +11°C° 0 mm 1 mps 692 mmHg 84%
    10:00 +12°C° 0 mm 1 mps 692 mmHg 80%
    11:00 +13°C° 0 mm 1 mps 692 mmHg 77%
    12:00 +13°C° 0 mm 1 mps 692 mmHg 75%
    13:00 +14°C° 0 mm 1 mps 691 mmHg 72%
    14:00 +13°C° 0 mm 1 mps 691 mmHg 77%
    15:00 +12°C° 0 mm 1 mps 691 mmHg 82%
    16:00 +11°C° 0 mm 1 mps 691 mmHg 86%
    17:00 +10°C° 0 mm 1 mps 691 mmHg 88%
    18:00 +10°C° 0 mm 1 mps 691 mmHg 89%
    19:00 +9°C° 0 mm 1 mps 691 mmHg 90%
    20:00 +9°C° 0 mm 1 mps 691 mmHg 90%
    21:00 +9°C° 0 mm 1 mps 691 mmHg 90%
    22:00 +8°C° 0 mm 1 mps 691 mmHg 90%
    23:00 +8°C° 0 mm 1 mps 690 mmHg 90%

    17 December, Tuesday

    Time Temperature Precipitation Wind Pressure Humidity
    00:00 +8°C° 0 mm 1 mps 690 mmHg 90%
    01:00 +8°C° 0 mm 1 mps 690 mmHg 90%
    02:00 +8°C° 0 mm 1 mps 690 mmHg 90%
    03:00 +8°C° 0 mm 1 mps 690 mmHg 89%
    04:00 +8°C° 0 mm 1 mps 690 mmHg 89%
    05:00 +8°C° 0 mm 1 mps 690 mmHg 89%
    06:00 +8°C° 0 mm 1 mps 690 mmHg 89%
    07:00 +8°C° 0 mm 1 mps 690 mmHg 89%
    08:00 +9°C° 0 mm 1 mps 690 mmHg 84%
    09:00 +11°C° 0 mm 1 mps 691 mmHg 79%
    10:00 +12°C° 0 mm 1 mps 692 mmHg 75%
    11:00 +13°C° 0 mm 2 mps 691 mmHg 73%
    12:00 +13°C° 0 mm 2 mps 691 mmHg 72%
    13:00 +13°C° 0 mm 2 mps 691 mmHg 71%
    14:00 +12°C° 0 mm 2 mps 690 mmHg 76%
    15:00 +10°C° 0 mm 2 mps 690 mmHg 81%
    16:00 +9°C° 0 mm 2 mps 690 mmHg 85%
    17:00 +10°C° 0 mm 1 mps 690 mmHg 86%
    18:00 +9°C° 0 mm 1 mps 690 mmHg 87%
    19:00 +8°C° 0 mm 1 mps 690 mmHg 88%
    20:00 +8°C° 0 mm 1 mps 690 mmHg 86%
    21:00 +8°C° 0 mm 1 mps 690 mmHg 85%
    22:00 +8°C° 0 mm 1 mps 690 mmHg 83%
    23:00 +8°C° 0 mm 1 mps 690 mmHg 81%

    18 December, Wednesday

    Time Temperature Precipitation Wind Pressure Humidity
    00:00 +8°C° 0 mm 1 mps 690 mmHg 79%
    01:00 +8°C° 0 mm 1 mps 690 mmHg 77%
    02:00 +8°C° 0 mm 1 mps 690 mmHg 75%
    03:00 +7°C° 0 mm 1 mps 690 mmHg 73%
    04:00 +7°C° 0 mm 1 mps 690 mmHg 72%
    05:00 +7°C° 0 mm 1 mps 690 mmHg 72%
    06:00 +7°C° 0 mm 1 mps 690 mmHg 72%
    07:00 +7°C° 0 mm 1 mps 690 mmHg 72%
    08:00 +9°C° 0 mm 1 mps 690 mmHg 67%
    09:00 +11°C° 0 mm 1 mps 691 mmHg 63%
    10:00 +13°C° 0 mm 1 mps 691 mmHg 58%
    11:00 +14°C° 0 mm 1 mps 691 mmHg 58%
    12:00 +14°C° 0 mm 1 mps 691 mmHg 58%
    13:00 +14°C° 0 mm 1 mps 691 mmHg 59%
    14:00 +13°C° 0 mm 1 mps 690 mmHg 66%
    15:00 +12°C° 0 mm 1 mps 690 mmHg 73%
    16:00 +9°C° 0 mm 0 mps 690 mmHg 80%
    17:00 +10°C° 0 mm 1 mps 690 mmHg 78%
    18:00 +10°C° 0 mm 1 mps 690 mmHg 77%
    19:00 +9°C° 0 mm 1 mps 690 mmHg 76%
    20:00 +9°C° 0 mm 1 mps 690 mmHg 75%
    21:00 +8°C° 0 mm 1 mps 690 mmHg 73%
    22:00 +8°C° 0 mm 1 mps 690 mmHg 72%
    23:00 +8°C° 0 mm 1 mps 690 mmHg 72%

    19 December, Thursday

    Time Temperature Precipitation Wind Pressure Humidity
    00:00 +8°C° 0 mm 1 mps 690 mmHg 71%
    01:00 +8°C° 0 mm 1 mps 690 mmHg 71%
    02:00 +8°C° 0 mm 1 mps 689 mmHg 73%
    03:00 +8°C° 0 mm 1 mps 689 mmHg 74%
    04:00 +8°C° 0 mm 1 mps 689 mmHg 76%
    05:00 +7°C° 0 mm 2 mps 689 mmHg 77%
    06:00 +7°C° 0 mm 2 mps 689 mmHg 79%
    07:00 +7°C° 0 mm 2 mps 689 mmHg 81%
    08:00 +8°C° 0 mm 2 mps 689 mmHg 78%
    09:00 +10°C° 0 mm 2 mps 689 mmHg 75%
    10:00 +12°C° 0 mm 2 mps 690 mmHg 73%
    11:00 +12°C° 0.1 mm 2 mps 689 mmHg 74%
    12:00 +12°C° 0.1 mm 2 mps 689 mmHg 76%
    13:00 +13°C° 0.1 mm 2 mps 688 mmHg 78%
    14:00 +12°C° 0.2 mm 2 mps 688 mmHg 81%
    15:00 +10°C° 0.2 mm 2 mps 688 mmHg 85%
    16:00 +9°C° 0.2 mm 2 mps 688 mmHg 88%
    17:00 +9°C° 0.2 mm 2 mps 688 mmHg 89%
    18:00 +8°C° 0.2 mm 2 mps 688 mmHg 91%
    19:00 +8°C° 0.2 mm 2 mps 687 mmHg 92%
    20:00 +8°C° 0.1 mm 2 mps 688 mmHg 92%
    21:00 +8°C° 0.1 mm 2 mps 688 mmHg 92%
    22:00 +8°C° 0.1 mm 2 mps 688 mmHg 92%
    23:00 +8°C° 0.1 mm 2 mps 687 mmHg 92%
    Show more